Location: Ecklingerode
(51.5036°N, 10.3122°E)
Time: 14:26:43
(UTC+00:00)

AQUARIUS - Pass Details

Date: 29 October 2020
Orbit: 650 x 653 km, 98.0° (Epoch: 28 November)

Event Time Altitude Azimuth Distance (km) Brightness Sun altitude
Rises 16:32:12 0° 162° (SSE) 2,965 7.5 -6.1°
Reaches altitude 10° 16:34:24 10° 162° (SSE) 2,058 6.7 -6.5°
Maximum altitude 16:38:54 85° 75° (ENE) 664 4.2 -7.1°
Drops below altitude 10° 16:43:26 10° 347° (NNW) 2,073 6.8 -7.8°
Sets 16:45:39 0° 347° (NNW) 2,989 7.6 -8.2°
